• MPC Preparation (Info)

  • MPEC 2014-T36 : 2014 SQ339

    The following Minor Planet Electronic Circular may be linked-to from your own Web pages, but must not otherwise be redistributed electronically.

    A form allowing access to any MPEC is at the bottom of this page.


    Read MPEC 2014-T35 Read MPEC 2014-T37


    M.P.E.C. 2014-T36                                Issued 2014 Oct. 4, 21:15 UT
    
         The Minor Planet Electronic Circulars contain information on unusual
             minor planets and routine data on comets.  They are published
       on behalf of Commission 20 of the International Astronomical Union by the
              Minor Planet Center, Smithsonian Astrophysical Observatory,
                              Cambridge, MA 02138, U.S.A.
    
                 Prepared using the Tamkin Foundation Computer Network
    
                                  MPC@CFA.HARVARD.EDU
                URL https://www.minorplanetcenter.net/    ISSN 1523-6714
    
                                      2014 SQ339
    
    Observations:
         K14SX9Q* C2014 09 29.52050 01 13 33.728+13 17 28.73         21.9 wLET036F51
         K14SX9Q  C2014 09 29.53194 01 13 32.086+13 17 05.55         21.9 wLET036F51
         K14SX9Q  C2014 09 29.55482 01 13 28.854+13 16 19.70         21.9 wLET036F51
         K14SX9Q KC2014 09 30.25062 01 11 50.94 +12 53 05.3          22.4 VtET036H21
         K14SX9Q KC2014 09 30.26708 01 11 48.61 +12 52 32.1                tET036H21
         K14SX9Q KC2014 09 30.28517 01 11 46.06 +12 51 55.5          22.8 VtET036H21
         K14SX9Q  C2014 09 30.34273 01 11 37.91 +12 50 01.3          20.4 RoET036711
         K14SX9Q  C2014 09 30.34743 01 11 37.26 +12 49 51.8          21.3 RoET036711
         K14SX9Q  C2014 09 30.34960 01 11 36.92 +12 49 47.4          20.7 RoET036711
         K14SX9Q  C2014 09 30.35979 01 11 35.46 +12 49 26.9          21.3 RoET036711
         K14SX9Q  C2014 09 30.36412 01 11 34.83 +12 49 17.4          21.5 RoET036711
         K14SX9Q  C2014 10 01.37309001 09 12.63 +12 15 23.5          21.5 RtET036H01
         K14SX9Q  C2014 10 01.37723501 09 12.04 +12 15 15.2          20.8 RtET036H01
         K14SX9Q  C2014 10 01.38942001 09 10.31 +12 14 50.5          21.5 RtET036H01
         K14SX9Q  C2014 10 01.39366601 09 09.71 +12 14 41.9          20.6 RtET036H01
         K14SX9Q  C2014 10 01.41091 01 09 07.22 +12 14 07.5          21.0 RoET036711
         K14SX9Q  C2014 10 01.41200 01 09 07.06 +12 14 05.4          21.2 RoET036711
         K14SX9Q  C2014 10 01.41308 01 09 06.90 +12 14 03.0          20.8 RoET036711
         K14SX9Q  C2014 10 01.41417 01 09 06.75 +12 14 01.0          21.0 RoET036711
         K14SX9Q  C2014 10 01.41525 01 09 06.60 +12 13 58.7          20.9 RoET036711
         K14SX9Q  C2014 10 01.41633 01 09 06.45 +12 13 56.6          21.0 RoET036711
         K14SX9Q  C2014 10 01.41742 01 09 06.29 +12 13 54.4          20.8 RoET036711
         K14SX9Q  C2014 10 01.41850 01 09 06.14 +12 13 52.1          20.8 RoET036711
         K14SX9Q  C2014 10 01.41959 01 09 06.00 +12 13 50.1          21.0 RoET036711
         K14SX9Q KC2014 10 01.42664 01 09 04.99 +12 13 35.7                oET036291
         K14SX9Q KC2014 10 01.43169 01 09 04.29 +12 13 25.8          21.4 RoET036291
         K14SX9Q KC2014 10 01.43674 01 09 03.56 +12 13 15.2          21.3 RoET036291
         K14SX9Q KC2014 10 04.23872 01 02 29.59 +10 38 08.7          21.3 RoET036291
         K14SX9Q KC2014 10 04.24322 01 02 28.97 +10 37 59.6          21.3 RoET036291
         K14SX9Q KC2014 10 04.24772 01 02 28.31 +10 37 50.3          21.2 RoET036291
    
    Observer details:
    291 LPL/Spacewatch II.  Observers T. H. Bressi, R. S. McMillan, A. F. Tubbiolo.
        1.8-m f/2.7 reflector + CCD.
    711 McDonald Observatory.  Observers J. G. Ries, K. Sarneczky, J. M. Silverman,
        J. Vinko.  2.7-m reflector + CCD.
    F51 Pan-STARRS 1, Haleakala.  Observers B. Gibson, T. Goggia, N. Primak,
        A. Schultz, M. Willman.  Measurers B. Bolin, K. Chambers, S. Chastel,
        L. Denneau, H. Flewelling, M. Huber, E. Magnier, E. Schunova, R. Wainscoat,
        C. Waters.  1.8-m Ritchey-Chretien + CCD.
    H01 Magdalena Ridge Observatory, Socorro.  Observer W. H. Ryan.  2.4-m f/8.9
        reflector + CCD.
    H21 Astronomical Research Observatory, Westfield.  Observer R. Holmes.
        Measurers L. Buzzi, S. Foglia, T. Vorobjov, T. Linder.  1.3-m f/4.0
        astrograph + CCD.
    
    Orbital elements:
    2014 SQ339
    Epoch 2014 Sept. 20.0 TT = JDT 2456920.5                MPC
    M   0.63653              (2000.0)            P               Q
    n   0.00726914     Peri.  148.24207     +0.74665614     +0.63791890
    a  26.3925047      Node   193.92223     +0.31468357     -0.08895245
    e   0.8947419      Incl.  128.39074     +0.58607070     -0.76494898
    P 136              H   17.4           G   0.15
    From 27 observations 2014 Sept. 29-Oct. 1.
    
    Ephemeris:
    2014 SQ339               a,e,i = 26.39, 0.89, 128                q = 2.7780
    Date    TT    R. A. (2000) Decl.     Delta      r     Elong.  Phase     V
    2014 09 04    02 07 45.4 +25 06 14   2.1976  2.8640   122.1    17.4    22.3
    ...
    2014 09 19    01 37 44.9 +18 48 20   2.0187  2.9027   145.5    11.3    21.9
    ...
    2014 09 27    01 19 28.2 +14 40 31   1.9680  2.9259   159.0     7.1    21.7
    ...
    2014 10 03    01 05 23.7 +11 20 24   1.9553  2.9445   169.3     3.6    21.5
    2014 10 04    01 03 03.2 +10 46 21   1.9554  2.9477   171.0     3.0    21.5
    2014 10 05    01 00 43.1 +10 12 13   1.9562  2.9510   172.7     2.5    21.5
    ...
    2014 10 11    00 46 56.7 +06 47 02   1.9743  2.9709   175.7     1.4    21.4
    ...
    2014 10 19    00 29 41.5 +02 21 55   2.0341  2.9988   162.4     5.8    21.8
    ...
    2014 11 03    00 02 51.0 -04 46 45   2.2430  3.0555   138.3    12.5    22.3
    
    A. U. Tomatic                (C) Copyright 2014 MPC           M.P.E.C. 2014-T36
    

    Read MPEC 2014-T35 Read MPEC 2014-T37


    MPEC number:

    Enter an MPEC number in one of the following forms:

    • 1997-B01 (the full form)
    • J97B01 (the packed version of the full form)
    • B01 (the abbreviated form)